Zurück zum Katalog

COSMOS 2448

GLONASS

AktivNavigationMEO
NORAD 33468·PAYLOAD·🇷🇺 Russia

Gestartet Dec 25, 2008 von Baikonur Cosmodrome

Loading…

Nächste Überflüge (nächste 24 Stunden)

TLE

AktuellSource: Space-Track

Epoche: Sep 10, 2026, 22:59 UTC

1 33468U 08067C   26253.95830602  .00000004  00000-0  00000-0 0  9990
2 33468  64.8717  66.3317 0003044 172.0358 188.0022  2.13116645137867

Verfolge COSMOS 2448 in Echtzeit mit AllMySat

Download on the App Store